Regional Weather Roundup
Issued by NWS Cleveland, OH

Home | Current Version | Previous Version | Graphics & Text | Print | Product List | Glossary On
Versions: 1 2 3 4 5 6 7 8 9 10 11 12 13 14 15 16 17 18 19 20 21 22 23 24 25 26 27 28 29 30 31 32 33 34 35 36 37 38 39 40 41 42 43 44 45 46 47 48 49 50
000
ASUS41 KCLE 181810
RWRCLE
OHIO REGIONAL WEATHER ROUNDUP
NATIONAL WEATHER SERVICE WILMINGTON, OH
100 PM EST THU DEC 18 2014

NOTE: "FAIR" INDICATES FEW OR NO CLOUDS BELOW 12,000 FEET WITH NO
SIGNIFICANT WEATHER AND/OR OBSTRUCTIONS TO VISIBILITY.

OHZ001>008-015>018-024>027-034-035-043-044-181900-
   NORTHWEST OHIO

CITY           SKY/WX    TMP DP  RH WIND       PRES   REMARKS
DEFIANCE       CLOUDY    30  24  78 W8        30.23F WCI  22
FINDLAY        CLOUDY    30  24  78 W13       30.20F WCI  20
TOLEDO EXPRESS CLOUDY    31  24  75 W9        30.20F WCI  23
TOLEDO METCALF CLOUDY    33  24  69 W9        30.21F WCI  25
LIMA           CLOUDY    31  22  69 SW12      30.22F WCI  22
$$

OHZ009>014-019>023-028>033-038-089-181900-
   NORTHEAST OHIO

CITY           SKY/WX    TMP DP  RH WIND       PRES   REMARKS
CLE-HOPKINS    FLURRIES  30  23  75 SW9       30.20F WCI  22
CLE-LAKEFRONT  CLOUDY    31  24  75 W12       30.17F WCI  22
CUY CO. ARPT   PTSUNNY   32  27  80 W14       30.17F WCI  22
LORAIN-ELYRIA  CLOUDY    30  24  78 W12       30.19F WCI  20
ASHTABULA      CLOUDY    31  25  78 W10       30.15F WCI  22
AKRON-CANTON   FLURRIES  29  21  72 W9        30.16F WCI  20
WOOSTER        CLOUDY    27  21  78 W9        30.18F WCI  18
MANSFIELD      CLOUDY    27  22  81 W8        30.17F WCI  19
YOUNGSTOWN     FLURRIES  29  24  82 W9        30.14F WCI  20
$$

OHZ042-051>053-060>062-070>072-077>081-181900-
  SOUTHWEST OHIO

CITY           SKY/WX    TMP DP  RH WIND       PRES   REMARKS
CINC-COVINGTON CLOUDY    28  18  66 W3        30.25F
CINC-LUNKEN    CLOUDY    29  19  66 CALM      30.28F
HAMILTON       CLOUDY    29  20  69 CALM      30.27F
DAYTON         CLOUDY    28  20  71 NW5       30.22F WCI  23
WRIGHT-PAT AFB CLOUDY    28  20  72 NW6       30.23F WCI  22
DAYTON GENERAL CLOUDY    27  19  72 W3        30.23F
WILMINGTON     CLOUDY    27  18  69 W3        30.22F
$$

OHZ036-037-039>041-045>050-054>059-063>069-073>076-082>088-181900-
  CENTRAL AND SOUTHEAST OHIO

CITY           SKY/WX    TMP DP  RH WIND       PRES   REMARKS
COLUMBUS       CLOUDY    28  20  71 W6        30.22F WCI  22
OSU AIRPORT    CLOUDY    28  20  71 W9        30.21F WCI  19
BOLTON FIELD   CLOUDY    27  21  80 W3        30.23F
RICKENBACK AFB CLOUDY    28  20  72 SW3       30.22F
NEWARK         CLOUDY    29  21  72 NW5       30.22F WCI  24
MARION         CLOUDY    28  21  75 W7        30.21F WCI  21
LANCASTER      CLOUDY    28  20  71 NW6       30.22F WCI  22
ZANESVILLE     CLOUDY    27  19  72 W8        30.22F WCI  19
NEW PHILLY     CLOUDY    30  21  69 W8        30.20F WCI  22
$$


USA.gov is the U.S. government's official web portal to all federal, state and local government web resources and services.